Location: Praha
(50.0830°N, 14.4670°E)
Time: 10:32:30
(UTC+02:00)

ISS - Pass Details

Date: 27 April 2025
Orbit: 416 x 419 km, 51.6° (Epoch: 18 May)

Event Time Altitude Azimuth Distance (km) Brightness Sun altitude
Exits shadow 03:45:34 40° 190° (S) 628 -3.3 -16.4°
Maximum altitude 03:46:14 47° 153° (SSE) 560 -3.3 -16.4°
Drops below altitude 10° 03:49:29 10° 78° (ENE) 1,497 -0.1 -16.0°
Sets 03:51:37 0° 73° (ENE) 2,363 1.2 -15.8°
